Simultaneous Nadir Overpasses (SNOs) Predictions

Prediction of SNOs between LANDSAT-8 and METOP-A Satellite Orbit:

Table of predicted SNOs for the next 14.0 days since TLE Epoch: 10/26/2016
Index Date (LANDSAT-8) Time (LANDSAT-8) Lat,Lon (LANDSAT-8) SZA (LANDSAT-8 ) Date (METOP-A) Time (METOP-A) Lat,Lon (METOP-A) SZA (METOP-A ) Distance(km) Time Diff (sec)
1 10/27/2016 10:55:44 81.12, 55.91 96.50 10/27/2016 10:55:03 81.12, 55.89 96.48 0.42 41
2 10/27/2016 11:45:10 -81.14,-136.16 83.45 10/27/2016 11:45:42 -81.14,-136.13 83.43 0.57 32
3 10/30/2016 06:29:58 81.13, 122.49 97.46 10/30/2016 06:29:24 81.12, 122.40 97.43 1.76 34
4 10/30/2016 07:19:24 -81.15, -69.55 82.49 10/30/2016 07:20:03 -81.14, -69.59 82.48 0.72 39
5 11/02/2016 02:04:13 81.13,-170.99 98.37 11/02/2016 02:03:46 81.12,-171.12 98.34 2.35 27
6 11/02/2016 02:53:39 -81.15, -3.01 81.57 11/02/2016 02:54:25 -81.15, -3.06 81.56 1.17 46
7 11/04/2016 21:38:28 81.13,-104.54 99.23 11/04/2016 21:38:08 81.12,-104.66 99.21 2.13 20
8 11/04/2016 22:27:54 -81.16, 63.47 80.70 11/04/2016 22:28:47 -81.15, 63.44 80.69 0.82 53
9 11/07/2016 17:12:42 81.13, -38.15 100.05 11/07/2016 17:12:29 81.13, -38.22 100.04 1.10 13




NCC Satellite Simultaneous Nadir Overpasses (SNOs) Prediction Service
